User: anonymous   Login
Location: Unspecified
(0.0000°N, 0.0000°E)
Time: 01:52:44
(UTC+00:00)
Language:

TBA - TO BE ASSIGNED - Orbit

View from above orbital plane
View from above orbital plane
View from above satellite
View from above satellite

Ground track
Ground track

The orbit is defined by the following mean orbital elements,

1 67449U          26145.01564177 +.00000000 +00000-0 +61718-3 0 00008
2 67449  42.9964 134.3139 0000807 259.6949 100.3812 15.27593692    03
Epoch (UTC): 25 May 2026 00:22:31
Eccentricity: 0.0000807
inclination: 42.9964°
perigee height: 482 km
apogee height: 484 km
right ascension of ascending node: 134.3139°
argument of perigee: 259.6949°
revolutions per day: 15.27593692
mean anomaly at epoch: 100.3812°

The dashed part of the orbit path shows where the satellite is in the earth's shadow,  

DLR